Terminal Aerodrome Forecast
Issued by NWS

Home | Current Version | Previous Version | Text Only | Print | Product List | Glossary On
Versions: 1 2 3 4 5 6 7 8 9 10 11 12 13
095
FTPA31 PHFO 172324
TAFHJH
TAF
PHJH 172324Z 1800/1824 04025G32KT P6SM VCSH FEW030 SCT040
     FM180600 04016G24KT P6SM VCSH FEW030 BKN040
     FM181900 04022G30KT P6SM VCSH FEW030 BKN040
      AMD NOT SKED 1804/1816=

USA.gov is the U.S. government's official web portal to all federal, state and local government web resources and services.